Location: Tauranga
(37.6860°S, 176.1670°E)
Time: 18:42:46
(UTC+13:00)

Cosmos 1408 - Pass Details

Date: 24 January 2019
Orbit: 471 x 498 km, 82.6° (Epoch: 17 February)

Event Time Altitude Azimuth Distance (km) Brightness Sun altitude
Rises 20:54:24 0° 186° (S) 2,627 6.8 -4.3°
Reaches altitude 10° 20:56:33 10° 184° (S) 1,735 5.9 -4.7°
Maximum altitude 21:00:22 78° 98° (E) 523 2.6 -5.4°
Drops below altitude 10° 21:04:07 10° 10° (N) 1,707 5.0 -6.0°
Sets 21:06:12 0° 9° (N) 2,579 5.9 -6.4°
